This demonstration page uses our WeatherBlox Daily Observations layout. Learn more.

Left ArrowRight Arrow

Hourly Observations for September 10, 2019

Temp ( °F °C ) Dew Point ( °F °C ) Humidity (%) Winds ( mph kmh ) Pressure ( in mb ) Visibility ( mi km ) Precip ( " mm )
12:15 am 00:15 Clear 63 17 61 16 94 94 Calm 30.26 1025 10 16 0.00 0.00
12:35 am 00:35 Clear 61 16 61 16 100 100 Calm 30.26 1025 10 16 0.00 0.00
12:55 am 00:55 Clear 63 17 61 16 94 94 Calm 30.26 1025 10 16 0.00 0.00
1:15 am 01:15 Clear 61 16 61 16 100 100 Calm 30.27 1025 10 16 0.00 0.00
1:35 am 01:35 Clear 61 16 61 16 100 100 Calm 30.28 1025 10 16 0.00 0.00
1:55 am 01:55 Clear 61 16 61 16 100 100 Calm 30.28 1025 10 16 0.00 0.00
2:15 am 02:15 Clear 63 17 61 16 94 94 Calm 30.28 1025 10 16 0.00 0.00
2:35 am 02:35 Clear 61 16 61 16 100 100 Calm 30.28 1025 10 16 0.00 0.00
2:55 am 02:55 Mostly Cloudy 61 16 61 16 100 100 Calm 30.28 1025 10 16 0.00 0.00
3:15 am 03:15 Partly Cloudy 59 15 59 15 100 100 Calm 30.28 1025 10 16 0.00 0.00
3:35 am 03:35 Partly Cloudy 59 15 59 15 100 100 Calm 30.28 1025 10 16 0.00 0.00
3:55 am 03:55 Partly Cloudy 59 15 59 15 100 100 Calm 30.29 1026 10 16 0.00 0.00
4:15 am 04:15 Partly Cloudy 61 16 61 16 100 100 Calm 30.29 1026 10 16 0.00 0.00
4:35 am 04:35 Partly Cloudy 61 16 61 16 100 100 Calm 30.29 1026 10 16 0.00 0.00
4:55 am 04:55 Clear 61 16 61 16 100 100 Calm 30.30 1026 10 16 0.00 0.00
5:15 am 05:15 Clear 61 16 61 16 100 100 Calm 30.30 1026 10 16 0.00 0.00
5:35 am 05:35 Clear 59 15 59 15 100 100 Calm 30.30 1026 10 16 0.00 0.00
5:55 am 05:55 Mostly Cloudy 59 15 59 15 100 100 Calm 30.30 1026 10 16 0.00 0.00
6:15 am 06:15 Cloudy 59 15 59 15 100 100 Calm 30.31 1026 10 16 0.00 0.00
6:55 am 06:55 Cloudy 59 15 59 15 100 100 Calm 30.33 1027 10 16 0.00 0.00
7:15 am 07:15 Cloudy 59 15 59 15 100 100 Calm 30.33 1027 10 16 0.00 0.00
7:35 am 07:35 Mostly Cloudy 61 16 61 16 100 100 Calm 30.33 1027 10 16 0.00 0.00
7:55 am 07:55 Mostly Cloudy 63 17 61 16 94 94 Calm 30.33 1027 10 16 0.00 0.00
8:15 am 08:15 Cloudy 64 18 63 17 94 94 Calm 30.33 1027 10 16 0.00 0.00
8:35 am 08:35 Cloudy 64 18 63 17 94 94 Calm 30.34 1028 10 16 0.00 0.00
8:55 am 08:55 Cloudy 66 19 63 17 88 88 Calm 30.34 1028 10 16 0.00 0.00
9:15 am 09:15 Cloudy 68 20 64 18 88 88 Calm 30.34 1027 10 16 0.00 0.00
9:35 am 09:35 Cloudy 70 21 64 18 83 83 SSW 6 9 30.35 1028 10 16 0.00 0.00
9:55 am 09:55 Mostly Cloudy 70 21 68 20 94 94 S 6 9 30.34 1027 10 16 0.00 0.00
10:15 am 10:15 Partly Cloudy 72 22 68 20 88 88 S 8 13 30.34 1027 10 16 0.00 0.00
10:35 am 10:35 Partly Cloudy 73 23 68 20 83 83 S 8 13 30.33 1027 10 16 0.00 0.00
11:15 am 11:15 Cloudy 73 23 68 20 83 83 S 7 11 30.33 1027 10 16 0.00 0.00
11:35 am 11:35 Mostly Cloudy 77 25 66 19 69 69 S 8 13 30.32 1027 10 16 0.00 0.00
11:55 am 11:55 Mostly Cloudy 79 26 64 18 61 61 SSW 7 11 30.31 1027 10 16 0.00 0.00
12:15 pm 12:15 Mostly Cloudy 79 26 64 18 61 61 SSW 8 13 30.31 1027 10 16 0.00 0.00
12:35 pm 12:35 Partly Cloudy 81 27 64 18 58 58 SSW 8 13 30.30 1026 10 16 0.00 0.00
12:55 pm 12:55 Mostly Cloudy 81 27 64 18 58 58 SSE 7 11 30.30 1026 10 16 0.00 0.00
1:15 pm 13:15 Partly Cloudy 82 28 63 17 51 51 S 8 13 30.29 1026 10 16 0.00 0.00
1:35 pm 13:35 Partly Cloudy 84 29 61 16 45 45 SSW 10 17 30.29 1026 10 16 0.00 0.00
1:55 pm 13:55 Partly Cloudy 86 30 63 17 46 46 SSW 13 20 30.28 1025 10 16 0.00 0.00
2:15 pm 14:15 Partly Cloudy 86 30 61 16 43 43 SW 9 15 30.27 1025 N/A 0.00 0.00
2:35 pm 14:35 Partly Cloudy 86 30 63 17 46 46 S 9 15 30.27 1025 N/A 0.00 0.00
2:55 pm 14:55 Partly Cloudy 86 30 63 17 46 46 S 12 19 30.27 1025 N/A 0.00 0.00
3:15 pm 15:15 Partly Cloudy 88 31 63 17 43 43 S 8 13 30.27 1025 N/A 0.00 0.00
3:35 pm 15:35 Partly Cloudy 86 30 63 17 46 46 S 12 19 30.26 1025 10 16 0.00 0.00
3:55 pm 15:55 Partly Cloudy 86 30 63 17 46 46 SW 7 11 30.26 1025 10 16 0.00 0.00
4:15 pm 16:15 Partly Cloudy with Thunderstorms 86 30 63 17 46 46 SW 7 11 30.25 1024 10 16 0.00 0.00
4:35 pm 16:35 Sunny 86 30 63 17 46 46 SSW 10 17 30.25 1024 10 16 0.00 0.00
4:55 pm 16:55 Sunny 86 30 63 17 46 46 S 8 13 30.25 1024 10 16 0.00 0.00
5:15 pm 17:15 Sunny 86 30 63 17 46 46 SSW 9 15 30.25 1024 10 16 0.00 0.00
5:35 pm 17:35 Sunny 86 30 63 17 46 46 SSW 8 13 30.25 1024 10 16 0.00 0.00
5:55 pm 17:55 Sunny 86 30 64 18 49 49 SSW 5 7 30.24 1024 10 16 0.00 0.00
6:15 pm 18:15 Sunny 84 29 64 18 51 51 S 5 7 30.24 1024 10 16 0.00 0.00
6:35 pm 18:35 Sunny 84 29 66 19 55 55 S 6 9 30.24 1024 10 16 0.00 0.00
7:15 pm 19:15 Sunny 82 28 66 19 58 58 S 7 11 30.24 1024 10 16 0.00 0.00
7:35 pm 19:35 Clear 81 27 66 19 62 62 S 8 13 30.23 1024 10 16 0.00 0.00
7:55 pm 19:55 Clear 81 27 64 18 58 58 S 9 15 30.24 1024 10 16 0.00 0.00
8:15 pm 20:15 Clear 79 26 64 18 61 61 S 7 11 30.24 1024 10 16 0.00 0.00
8:35 pm 20:35 Clear 79 26 64 18 61 61 S 7 11 30.23 1024 10 16 0.00 0.00
8:55 pm 20:55 Clear 77 25 66 19 69 69 S 7 11 30.24 1024 10 16 0.00 0.00
9:15 pm 21:15 Clear 75 24 66 19 74 74 S 6 9 30.25 1024 10 16 0.00 0.00
9:35 pm 21:35 Clear 77 25 68 20 74 74 S 7 11 30.25 1025 10 16 0.00 0.00
9:55 pm 21:55 Clear 75 24 68 20 78 78 S 8 13 30.26 1025 10 16 0.00 0.00
10:15 pm 22:15 Clear 75 24 68 20 78 78 S 9 15 30.25 1024 10 16 0.00 0.00
10:35 pm 22:35 Clear 73 23 68 20 83 83 S 8 13 30.26 1025 10 16 0.00 0.00
10:55 pm 22:55 Clear 73 23 68 20 83 83 S 9 15 30.26 1025 10 16 0.00 0.00
11:15 pm 23:15 Clear 73 23 68 20 83 83 S 8 13 30.26 1025 10 16 0.00 0.00
11:35 pm 23:35 Clear 72 22 68 20 88 88 SSW 7 11 30.27 1025 10 16 0.00 0.00
11:55 pm 23:55 Clear 72 22 68 20 88 88 SSW 5 7 30.27 1025 10 16 0.00 0.00

Powered by AerisWeather